Radiation Dose at Monitoring Post of Fukushima Daini Nuclear Power Station
Date,Time,MP-1(microSv/h),MP-2(microSv/h),MP-3(microSv/h),MP-4(microSv/h),MP-5(microSv/h),MP-6(microSv/h),MP-7(microSv/h),Wind Direction,Wind Velocity(m/s),Rain
2019/10/02,00:00,0.191,0.167,0.287,0.270,0.268,0.145,0.090,southwest,0.7,No
2019/10/02,00:10,0.190,0.167,0.285,0.270,0.266,0.146,0.090,west-southwest,1.3,No
2019/10/02,00:20,0.191,0.166,0.287,0.269,0.269,0.145,0.090,west-southwest,0.9,No
2019/10/02,00:30,0.190,0.167,0.285,0.269,0.266,0.146,0.089,-,CALM,No
2019/10/02,00:40,0.191,0.166,0.287,0.270,0.269,0.145,0.090,west-northwest,0.9,No
2019/10/02,00:50,0.190,0.167,0.285,0.269,0.266,0.146,0.089,north,0.7,No
2019/10/02,01:00,0.192,0.166,0.286,0.270,0.268,0.145,0.090,north,0.7,No
2019/10/02,01:10,0.191,0.167,0.286,0.268,0.266,0.145,0.090,-,CALM,No
2019/10/02,01:20,0.190,0.165,0.286,0.270,0.268,0.147,0.089,west,0.7,No
2019/10/02,01:30,0.190,0.166,0.286,0.268,0.266,0.146,0.089,west-southwest,0.6,No
2019/10/02,01:40,0.190,0.166,0.284,0.269,0.269,0.146,0.090,-,CALM,No
2019/10/02,01:50,0.190,0.167,0.287,0.268,0.265,0.145,0.091,west,0.7,No
2019/10/02,02:00,0.189,0.167,0.285,0.269,0.267,0.145,0.090,west-northwest,1.1,No
2019/10/02,02:10,0.190,0.166,0.289,0.269,0.267,0.145,0.089,-,CALM,No
2019/10/02,02:20,0.190,0.167,0.286,0.268,0.268,0.146,0.090,-,CALM,No
2019/10/02,02:30,0.190,0.167,0.286,0.270,0.267,0.146,0.090,east-southeast,0.6,No
2019/10/02,02:40,0.190,0.167,0.285,0.267,0.268,0.145,0.090,-,CALM,No
2019/10/02,02:50,0.190,0.167,0.285,0.270,0.267,0.145,0.089,-,CALM,No
2019/10/02,03:00,0.190,0.166,0.286,0.269,0.265,0.146,0.090,southwest,0.6,No
2019/10/02,03:10,0.192,0.167,0.286,0.270,0.267,0.144,0.090,-,CALM,No
2019/10/02,03:20,0.191,0.166,0.285,0.269,0.265,0.146,0.089,southwest,0.8,No
2019/10/02,03:30,0.191,0.166,0.285,0.269,0.268,0.145,0.090,west,1.2,No
2019/10/02,03:40,0.190,0.167,0.286,0.269,0.266,0.146,0.089,west-southwest,1.4,No
2019/10/02,03:50,0.192,0.166,0.286,0.268,0.268,0.145,0.090,south-southwest,0.8,No
2019/10/02,04:00,0.190,0.167,0.285,0.269,0.267,0.145,0.090,-,CALM,No
2019/10/02,04:10,0.190,0.167,0.287,0.267,0.269,0.146,0.090,west-southwest,0.8,No
2019/10/02,04:20,0.190,0.167,0.286,0.270,0.266,0.144,0.090,-,CALM,No
2019/10/02,04:30,0.190,0.166,0.287,0.270,0.269,0.145,0.090,-,CALM,No
2019/10/02,04:40,0.191,0.165,0.285,0.270,0.265,0.145,0.090,-,CALM,No
2019/10/02,04:50,0.190,0.166,0.286,0.269,0.268,0.145,0.090,east-northeast,1.8,No
2019/10/02,05:00,0.191,0.167,0.285,0.269,0.265,0.145,0.089,east-northeast,1.7,No
2019/10/02,05:10,0.189,0.166,0.287,0.270,0.268,0.145,0.090,east-northeast,2.1,No
2019/10/02,05:20,0.191,0.167,0.286,0.268,0.266,0.146,0.090,east,1.6,No
2019/10/02,05:30,0.190,0.166,0.287,0.270,0.268,0.145,0.089,east-northeast,0.8,No
2019/10/02,05:40,0.191,0.166,0.287,0.269,0.267,0.146,0.090,east,0.7,No
2019/10/02,05:50,0.192,0.165,0.286,0.270,0.266,0.145,0.090,-,CALM,No
2019/10/02,06:00,0.190,0.168,0.286,0.269,0.268,0.145,0.090,-,CALM,No
2019/10/02,06:10,0.191,0.167,0.286,0.269,0.266,0.145,0.090,southwest,0.6,No
2019/10/02,06:20,0.190,0.166,0.286,0.270,0.268,0.145,0.091,southwest,1.0,No
2019/10/02,06:30,0.192,0.167,0.285,0.269,0.266,0.145,0.090,southwest,0.6,No
2019/10/02,06:40,0.190,0.165,0.286,0.271,0.266,0.146,0.090,-,CALM,No
2019/10/02,06:50,0.191,0.167,0.288,0.268,0.266,0.145,0.090,-,CALM,No
2019/10/02,07:00,0.190,0.167,0.286,0.269,0.268,0.146,0.091,east-southeast,0.9,No
2019/10/02,07:10,0.192,0.166,0.287,0.268,0.266,0.145,0.091,northeast,0.7,No
2019/10/02,07:20,0.189,0.167,0.285,0.269,0.266,0.147,0.090,north,1.3,No
2019/10/02,07:30,0.192,0.167,0.287,0.268,0.268,0.145,0.090,northeast,1.1,No
2019/10/02,07:40,0.190,0.167,0.286,0.269,0.265,0.146,0.090,-,CALM,No
2019/10/02,07:50,0.191,0.166,0.287,0.269,0.269,0.146,0.089,-,CALM,No
2019/10/02,08:00,0.190,0.166,0.284,0.266,0.266,0.146,0.090,northwest,0.7,No
2019/10/02,08:10,0.193,0.166,0.288,0.268,0.267,0.146,0.091,north,1.0,No
2019/10/02,08:20,0.190,0.166,0.284,0.270,0.270,0.146,0.090,northwest,1.0,No
2019/10/02,08:30,0.192,0.167,0.287,0.267,0.266,0.145,0.090,north-northeast,0.9,No
2019/10/02,08:40,0.190,0.166,0.285,0.267,0.267,0.146,0.090,north-northwest,1.2,No
2019/10/02,08:50,0.190,0.166,0.286,0.268,0.269,0.146,0.090,east-northeast,0.7,No
2019/10/02,09:00,0.192,0.167,0.286,0.271,0.267,0.145,0.089,north,0.8,No
2019/10/02,09:10,0.191,0.167,0.284,0.271,0.265,0.147,0.089,north-northeast,1.3,No
2019/10/02,09:20,0.189,0.165,0.288,0.269,0.264,0.145,0.090,northeast,1.7,No
2019/10/02,09:30,0.187,0.165,0.284,0.268,0.269,0.145,0.090,east-northeast,1.7,No
2019/10/02,09:40,0.188,0.167,0.286,0.267,0.267,0.145,0.089,east-northeast,1.6,No
2019/10/02,09:50,0.188,0.168,0.287,0.268,0.266,0.145,0.089,northeast,2.1,No
2019/10/02,10:00,0.188,0.167,0.285,0.269,0.266,0.146,0.089,northeast,2.2,No
2019/10/02,10:10,0.189,0.166,0.287,0.269,0.266,0.145,0.090,northeast,1.3,No
2019/10/02,10:20,0.188,0.165,0.286,0.268,0.265,0.145,0.091,northeast,1.6,No
2019/10/02,10:30,0.187,0.166,0.284,0.269,0.266,0.146,0.090,east-northeast,1.8,No
2019/10/02,10:40,0.188,0.165,0.288,0.269,0.266,0.146,0.090,east,1.2,No
2019/10/02,10:50,0.188,0.165,0.284,0.267,0.265,0.145,0.090,east,0.9,No
2019/10/02,11:00,0.189,0.166,0.283,0.269,0.267,0.147,0.090,east,1.3,No
2019/10/02,11:10,0.190,0.165,0.283,0.269,0.267,0.147,0.090,east-southeast,2.2,No
2019/10/02,11:20,0.190,0.165,0.282,0.269,0.267,0.147,0.090,east-southeast,2.6,No
2019/10/02,11:30,0.190,0.165,0.284,0.269,0.267,0.146,0.089,east-southeast,2.5,No
2019/10/02,11:40,0.189,0.165,0.288,0.269,0.267,0.146,0.090,east-southeast,3.0,No
2019/10/02,11:50,0.190,0.167,0.287,0.268,0.267,0.147,0.090,east-southeast,2.0,No
2019/10/02,12:00,0.188,0.166,0.285,0.268,0.267,0.146,0.090,southeast,2.2,No
2019/10/02,12:10,0.190,0.167,0.284,0.269,0.267,0.146,0.090,southeast,2.2,No
2019/10/02,12:20,0.191,0.166,0.284,0.267,0.267,0.146,0.090,southeast,2.0,No
2019/10/02,12:30,0.191,0.166,0.284,0.269,0.267,0.147,0.089,east-southeast,2.6,No
2019/10/02,12:40,0.190,0.166,0.284,0.269,0.267,0.145,0.090,southeast,2.1,No
2019/10/02,12:50,0.191,0.166,0.284,0.268,0.268,0.146,0.090,southeast,1.7,No
2019/10/02,13:00,0.191,0.166,0.284,0.269,0.266,0.146,0.089,southeast,1.9,No
2019/10/02,13:10,0.190,0.167,0.284,0.269,0.267,0.147,0.090,southeast,2.0,No
2019/10/02,13:20,0.190,0.167,0.285,0.269,0.267,0.147,0.090,southeast,2.9,No
2019/10/02,13:30,0.191,0.166,0.285,0.268,0.269,0.147,0.090,south-southeast,3.1,No
2019/10/02,13:40,0.190,0.166,0.285,0.269,0.268,0.146,0.089,south-southeast,2.7,No
2019/10/02,13:50,0.191,0.166,0.285,0.268,0.268,0.147,0.090,southeast,2.2,No
2019/10/02,14:00,0.191,0.166,0.285,0.268,0.267,0.146,0.090,southeast,2.5,No
2019/10/02,14:10,0.191,0.166,0.284,0.268,0.268,0.146,0.089,south-southeast,3.3,No
2019/10/02,14:20,0.191,0.167,0.285,0.271,0.266,0.145,0.090,south-southeast,3.1,No
2019/10/02,14:30,0.191,0.166,0.285,0.273,0.266,0.146,0.090,south-southeast,3.0,No
2019/10/02,14:40,0.190,0.166,0.287,0.270,0.267,0.146,0.090,south,3.1,No
2019/10/02,14:50,0.190,0.166,0.289,0.269,0.266,0.146,0.090,south-southeast,3.2,No
2019/10/02,15:00,0.191,0.168,0.287,0.272,0.270,0.147,0.090,south-southeast,3.0,No
2019/10/02,15:10,0.189,0.168,0.284,0.273,0.271,0.147,0.090,south-southeast,3.3,No
2019/10/02,15:20,0.191,0.167,0.290,0.271,0.269,0.147,0.091,south-southeast,3.8,No
2019/10/02,15:30,0.188,0.167,0.288,0.269,0.266,0.148,0.090,south-southeast,3.8,No
2019/10/02,15:40,0.190,0.169,0.285,0.272,0.270,0.147,0.090,south-southeast,4.0,No
2019/10/02,15:50,0.193,0.167,0.288,0.272,0.272,0.146,0.091,south-southeast,3.7,No
2019/10/02,16:00,0.192,0.167,0.289,0.270,0.267,0.146,0.091,south-southeast,3.8,No
2019/10/02,16:10,0.191,0.169,0.285,0.273,0.267,0.147,0.090,southeast,2.8,No
2019/10/02,16:20,0.193,0.167,0.288,0.271,0.270,0.147,0.091,south-southeast,2.6,No
2019/10/02,16:30,0.193,0.167,0.288,0.268,0.269,0.147,0.090,south-southeast,2.8,No
2019/10/02,16:40,0.191,0.168,0.285,0.272,0.265,0.146,0.090,south-southeast,2.9,No
2019/10/02,16:50,0.192,0.166,0.288,0.270,0.267,0.147,0.091,south-southeast,2.1,No
2019/10/02,17:00,0.192,0.168,0.288,0.270,0.270,0.146,0.090,south,3.2,No
2019/10/02,17:10,0.190,0.168,0.284,0.272,0.268,0.146,0.091,south-southeast,3.4,No
2019/10/02,17:20,0.192,0.167,0.289,0.270,0.268,0.147,0.091,south,3.2,No
2019/10/02,17:30,0.191,0.167,0.286,0.271,0.270,0.147,0.089,south,2.6,No
2019/10/02,17:40,0.191,0.167,0.286,0.272,0.267,0.147,0.091,south,2.4,No
2019/10/02,17:50,0.193,0.168,0.288,0.269,0.270,0.147,0.090,south,2.0,No
2019/10/02,18:00,0.191,0.167,0.286,0.272,0.270,0.146,0.091,south-southeast,1.4,No
2019/10/02,18:10,0.192,0.168,0.289,0.269,0.268,0.147,0.091,south-southeast,2.2,No
2019/10/02,18:20,0.191,0.166,0.287,0.271,0.270,0.146,0.091,south-southeast,1.5,No
2019/10/02,18:30,0.191,0.168,0.287,0.272,0.267,0.146,0.091,south-southeast,2.8,No
2019/10/02,18:40,0.193,0.167,0.288,0.270,0.269,0.147,0.090,south-southeast,2.5,No
2019/10/02,18:50,0.191,0.168,0.286,0.273,0.268,0.145,0.090,south-southeast,2.2,No
2019/10/02,19:00,0.192,0.168,0.289,0.270,0.269,0.147,0.091,south-southeast,1.9,No
2019/10/02,19:10,0.191,0.168,0.286,0.273,0.269,0.145,0.091,south,2.0,No
2019/10/02,19:20,0.192,0.167,0.290,0.271,0.268,0.147,0.091,south,1.7,No
2019/10/02,19:30,0.192,0.169,0.286,0.272,0.270,0.147,0.091,south,1.4,No
2019/10/02,19:40,0.190,0.167,0.289,0.272,0.268,0.147,0.090,south,1.7,No
2019/10/02,19:50,0.193,0.168,0.288,0.270,0.272,0.147,0.090,south-southeast,1.8,No
2019/10/02,20:00,0.191,0.168,0.288,0.271,0.267,0.148,0.091,south-southeast,1.8,No
2019/10/02,20:10,0.193,0.169,0.289,0.271,0.269,0.146,0.091,south,2.9,No
2019/10/02,20:20,0.192,0.168,0.288,0.274,0.270,0.147,0.092,south,2.9,No
2019/10/02,20:30,0.193,0.170,0.289,0.271,0.270,0.147,0.091,south,3.1,No
2019/10/02,20:40,0.191,0.169,0.287,0.274,0.270,0.147,0.091,south,2.9,No
2019/10/02,20:50,0.193,0.170,0.290,0.271,0.268,0.147,0.090,south,3.0,No
2019/10/02,21:00,0.193,0.169,0.287,0.273,0.271,0.147,0.091,south,2.7,No
2019/10/02,21:10,0.191,0.169,0.290,0.270,0.268,0.148,0.091,south,4.0,No
2019/10/02,21:20,0.193,0.168,0.288,0.273,0.271,0.147,0.092,south,4.1,No
2019/10/02,21:30,0.192,0.170,0.290,0.271,0.268,0.148,0.092,south,4.1,No
2019/10/02,21:40,0.194,0.168,0.288,0.273,0.272,0.149,0.093,south,4.4,No
2019/10/02,21:50,0.192,0.170,0.290,0.274,0.269,0.148,0.092,south,4.8,No
2019/10/02,22:00,0.193,0.169,0.288,0.272,0.271,0.148,0.093,south,5.5,No
2019/10/02,22:10,0.192,0.170,0.291,0.273,0.269,0.147,0.092,south,5.6,No
2019/10/02,22:20,0.194,0.168,0.289,0.272,0.271,0.147,0.092,south,5.9,No
2019/10/02,22:30,0.192,0.168,0.287,0.273,0.268,0.148,0.091,south,6.7,No
2019/10/02,22:40,0.193,0.168,0.289,0.272,0.270,0.147,0.091,south,6.5,No
2019/10/02,22:50,0.193,0.168,0.287,0.274,0.269,0.147,0.091,south,7.1,No
2019/10/02,23:00,0.191,0.167,0.288,0.270,0.268,0.147,0.091,south,7.1,No
2019/10/02,23:10,0.192,0.168,0.287,0.273,0.270,0.147,0.090,south,6.8,No
2019/10/02,23:20,0.190,0.167,0.288,0.270,0.267,0.147,0.090,south,6.1,No
2019/10/02,23:30,0.192,0.167,0.287,0.272,0.270,0.147,0.091,south,5.3,No
2019/10/02,23:40,0.191,0.168,0.290,0.270,0.267,0.147,0.091,south,5.7,No
2019/10/02,23:50,0.193,0.169,0.287,0.273,0.271,0.147,0.091,south,5.8,No
